Location: Gro� Glienicke
(52.4675°N, 13.1079°E)
Time: 17:59:51
(UTC+00:00)

Cosmos 2278 Rocket - Pass Details

Date: 06 July 2020
Orbit: 841 x 845 km, 71.0° (Epoch: 12 August)

Event Time Altitude Azimuth Distance (km) Brightness Sun altitude
Rises 22:29:34 0° 321° (NW) 3,417 6.5 -14.4°
Reaches altitude 10° 22:32:34 10° 306° (NW) 2,476 5.3 -14.5°
Maximum altitude 22:36:42 21° 259° (W) 1,801 3.9 -14.6°
Enters shadow 22:40:23 12° 215° (SW) 2,340 4.1 -14.6°
